[[{"header":{"parameterUnit":"m.s-1","parameterCategory":1,"la1":30.2991,"la2":30.254,"lo1":-89.0895,"lo2":-89.0444,"dy":0.0017,"dx":0.0017,"nx":28,"ny":28,"refTime":"2025-11-09T03:00:00:Z","depth":0,"parameterNumber":2,"parameterNumberName":"U-component_of_WINDS"},"data":[0,0,0,0,0,0,0,0,0,0,0,0,0,0,0,0,0,0,0,0,0,0,0,0,0,0,0,0,0,0,0,0,0,0,0,0,0,0,0,0,0,0,0,0,0,0,0,0,0,0,0,0,0,0,0,0,0,0,4.3593,4.3593,0,4.3625,4.3625,4.3626,4.3587,4.3586,4.3585,4.3583,4.3614,4.3616,4.3618,0,0,0,0,0,0,0,0,0,0,0,0,0,4.3498,4.35,4.3593,4.3593,4.3594,4.3625,4.3625,4.3626,4.3588,4.3586,4.3584,4.3583,4.3613,4.3616,4.3618,0,0,0,0,0,0,0,0,0,0,0,0,0,4.3536,4.3501,4.3593,4.3579,4.3578,4.3625,4.3625,4.3626,4.3588,4.3586,4.3584,4.3582,4.3612,4.3615,4.3618,4.368,0,0,4.3628,4.363,0,0,0,0,0,0,0,0,4.3534,4.3539,4.358,4.358,4.3579,4.36,4.3603,4.3644,4.3589,4.3584,4.3583,4.3581,4.3611,4.3614,4.3624,4.3682,4.3683,4.3628,4.363,4.3632,4.3633,0,0,0,0,0,0,0,4.3531,4.3538,4.3605,4.3581,4.358,4.357,4.3573,4.3611,4.3609,4.3584,4.3582,4.3586,4.361,4.3621,4.3625,4.3683,4.3628,4.3631,4.3633,4.3634,4.3795,4.3797,0,0,0,0,0,0,4.353,4.3536,4.3604,4.3606,4.3551,4.3574,4.3577,4.3595,4.3608,4.3608,4.3588,4.3584,4.3617,4.3621,4.3626,4.37,4.3632,4.3635,4.3636,4.3793,4.3796,4.3798,0,0,0,0,0,0,4.3529,4.3537,4.3603,4.357,4.3578,4.3578,4.3598,4.3597,4.3609,4.3611,4.361,4.36,4.3616,4.3621,4.3668,4.3701,4.3636,4.3639,4.379,4.3794,4.3797,4.3849,0,0,0,0,0,0,4.3526,4.3536,4.356,4.3571,4.358,4.3645,4.36,4.3599,4.3614,4.361,4.3622,4.3622,4.3614,4.3663,4.3671,4.3704,4.3641,4.3787,4.3792,4.3796,4.3844,4.3853,4.3862,0,0,0,0,0,4.3523,4.3572,4.3561,4.357,4.3609,4.3647,4.3652,4.3642,4.3617,4.3641,4.3643,4.3622,4.3696,4.3668,4.3677,4.3711,4.3785,4.379,4.3796,4.384,4.3852,4.3861,0,0,0,0,0,0,4.3563,4.3573,4.3561,4.3616,4.3631,4.364,4.3669,4.3654,4.3676,4.3671,4.3658,4.3661,4.371,4.3715,4.3684,4.3773,4.3736,4.3744,4.3767,4.3778,4.3787,4.3784,4.3644,0,0,0,0,0,4.3578,4.3608,4.3615,4.3663,4.3671,4.367,4.3685,4.3677,4.3692,4.3697,4.3702,4.3717,4.3744,4.3761,4.3786,4.3845,4.3848,4.3873,4.3882,4.3889,4.3895,4.3928,4.394,4.3816,4.3816,4.3816,0,0,4.361,4.3619,4.3639,4.3671,4.3682,4.3713,4.3675,4.3709,4.3732,4.3702,4.3747,4.3751,4.3767,4.382,4.3844,4.3826,4.393,4.3896,4.3902,4.3904,4.3935,4.3946,4.3957,4.3819,4.3819,4.3818,0,0,4.3684,4.3694,4.3735,4.3747,4.3765,4.3764,4.3774,4.3786,4.3789,4.3833,4.3812,4.384,4.3886,4.3898,4.391,4.3992,4.3974,4.4001,4.4046,4.4079,4.4088,4.4097,4.4127,4.4137,4.4007,4.4007,4.4007,0,4.372,4.3767,4.3758,4.3795,4.381,4.3787,4.3829,4.3841,4.3865,4.3876,4.3856,4.3915,4.3923,4.398,4.4,4.4011,4.4022,4.3998,4.4088,4.4096,4.4104,4.4132,4.4143,4.401,4.401,4.401,4.4009,0,4.3812,4.3845,4.3876,4.3902,4.3921,4.396,4.3957,4.3978,4.3969,4.397,4.4017,4.4027,4.4054,4.4067,4.4058,4.4123,4.4111,4.409,4.4053,4.4119,4.4145,4.4156,4.4015,4.4014,4.4013,4.4012,0,0,4.3909,4.3932,4.3943,4.3956,4.3974,4.3999,4.4038,4.4066,4.4084,4.4102,4.4135,4.4176,4.4157,4.4171,4.4163,4.4192,4.4257,4.4167,4.4167,4.4183,4.433,4.4346,4.4359,4.4246,4.4248,4.4249,4.4329,0,4.3983,4.4051,4.4045,4.4109,4.414,4.412,4.4154,4.4169,4.4172,4.4199,4.4202,4.4231,4.4204,4.4212,4.424,4.4243,4.4286,4.4238,4.4275,4.4277,4.4271,4.4372,4.4388,4.4463,4.4339,4.4341,4.4342,0,4.4078,4.4102,4.4169,4.4186,4.4198,4.4229,4.4255,4.4281,4.4298,4.4298,4.4316,4.4304,4.4344,4.4307,4.4362,4.4329,4.4344,4.4349,4.4351,4.4354,4.4313,4.4377,4.4486,4.4497,4.4358,4.4357,4.4356,0,4.4143,4.4191,4.4238,4.4249,4.4269,4.4292,4.4301,4.4317,4.4334,4.4357,4.4369,4.4396,4.441,4.4432,4.4428,4.4402,4.4484,4.4447,4.4485,4.4485,4.4501,4.45,4.4614,4.4513,4.4513,4.4512,4.4512,0,4.4225,4.4268,4.4268,4.4297,4.4344,4.4338,4.4384,4.4391,4.4406,4.4436,4.442,4.4448,4.4442,4.447,4.4468,4.4513,4.452,4.4521,4.452,4.4522,4.4522,4.4531,4.4526,4.4515,4.4515,4.4514,4.4514,0,4.4305,4.4306,4.4357,4.4373,4.4378,4.4412,4.4425,4.4453,4.4456,4.4494,4.4503,4.4507,4.4539,4.4538,4.4575,4.4573,4.463,4.4623,4.4624,4.4622,4.4661,4.4657,4.4784,4.4801,4.4689,4.469,4.4691,0,4.4357,4.4389,4.441,4.4429,4.4441,4.4472,4.4491,4.4487,4.4507,4.4531,4.4556,4.4588,4.4613,4.4666,4.4672,4.4701,4.4694,4.4737,4.4698,4.47,4.4694,4.4692,4.4696,4.4744,4.4745,4.4746,4.4747,0,4.445,4.445,4.4478,4.4508,4.4531,4.4553,4.4574,4.4591,4.4589,4.4613,4.4647,4.4667,4.4706,4.4738,4.4766,4.4775,4.4761,4.476,4.477,4.4772,4.4772,4.4772,4.4644,4.4756,4.4755,4.4754,4.4754,4.4754,4.4517,4.4546,4.4565,4.4597,4.4613,4.4634,4.4661,4.4668,4.4697,4.4729,4.4725,4.4763,4.4782,4.4818,4.4831,4.4861,4.4845,4.486,4.4864,4.4867,4.4872,4.4768,4.4866,4.4865,4.4865,4.4865,4.4865,0,4.4609,4.4622,4.4652,4.4682,4.4708,4.4695,4.4718,4.474,4.4774,4.4793,4.4819,4.4859,4.4891,4.4901,4.4931,4.4953,4.4948,4.4962,4.4959,4.4962,4.4883,4.4872,4.4966,4.4966,4.4966,4.4966,4.4966,4.4965,4.466,4.4708,4.4711,4.4767,4.4779,4.4817,4.4831,4.485,4.4866,4.4912,4.4939,4.4945,4.4961,4.4993,4.5021,4.5024,4.5035,4.5052,4.5051,4.4977,4.4967,4.4957,4.4946,4.5054,4.5055,4.5127,4.5128,4.5128]},{"header":{"parameterUnit":"m.s-1","parameterCategory":1,"la1":30.2991,"la2":30.254,"lo1":-89.0895,"lo2":-89.0444,"dy":0.0017,"dx":0.0017,"nx":28,"ny":28,"refTime":"2025-11-09T03:00:00:Z","depth":0,"parameterNumber":3,"parameterNumberName":"V-component_of_WINDS"},"data":[0,0,0,0,0,0,0,0,0,0,0,0,0,0,0,0,0,0,0,0,0,0,0,0,0,0,0,0,0,0,0,0,0,0,0,0,0,0,0,0,0,0,0,0,0,0,0,0,0,0,0,0,0,0,0,0,0,0,-7.5893,-7.5894,0,-7.603,-7.6032,-7.6033,-7.5991,-7.5989,-7.5986,-7.5983,-7.612,-7.6126,-7.6132,0,0,0,0,0,0,0,0,0,0,0,0,0,-7.5591,-7.5596,-7.5892,-7.5894,-7.5896,-7.603,-7.6032,-7.6034,-7.5992,-7.5988,-7.5985,-7.5982,-7.6118,-7.6125,-7.6133,0,0,0,0,0,0,0,0,0,0,0,0,0,-7.5724,-7.5598,-7.5892,-7.5891,-7.5893,-7.603,-7.6032,-7.6034,-7.5993,-7.5988,-7.5984,-7.598,-7.6115,-7.6124,-7.6134,-7.6279,0,0,-7.6163,-7.6167,0,0,0,0,0,0,0,0,-7.5717,-7.5735,-7.589,-7.5892,-7.5893,-7.5989,-7.5976,-7.6116,-7.5994,-7.5955,-7.5983,-7.5978,-7.6079,-7.6092,-7.6127,-7.6285,-7.6291,-7.6163,-7.6169,-7.6173,-7.6176,0,0,0,0,0,0,0,-7.5707,-7.5729,-7.5947,-7.5892,-7.5894,-7.5883,-7.5897,-7.6002,-7.6039,-7.5958,-7.5955,-7.5972,-7.608,-7.6118,-7.613,-7.6293,-7.6163,-7.6172,-7.6177,-7.6181,-7.6578,-7.6583,0,0,0,0,0,0,-7.5697,-7.5722,-7.5942,-7.5951,-7.5793,-7.5892,-7.5908,-7.5963,-7.6038,-7.6046,-7.5976,-7.597,-7.6104,-7.6119,-7.6134,-7.631,-7.6173,-7.6182,-7.6188,-7.6574,-7.6579,-7.6585,0,0,0,0,0,0,-7.5691,-7.5718,-7.5937,-7.5836,-7.5863,-7.5902,-7.5964,-7.5968,-7.6006,-7.6052,-7.6058,-7.6008,-7.6101,-7.6121,-7.6244,-7.6314,-7.6186,-7.6195,-7.6568,-7.6575,-7.6582,-7.6663,0,0,0,0,0,0,-7.5683,-7.5716,-7.5772,-7.5837,-7.5868,-7.6045,-7.5968,-7.5974,-7.6023,-7.6016,-7.6084,-7.6091,-7.6099,-7.623,-7.6253,-7.6325,-7.6202,-7.6562,-7.6571,-7.658,-7.6654,-7.6672,-7.6687,0,0,0,0,0,-7.5672,-7.5787,-7.5775,-7.5801,-7.5939,-7.6049,-7.6067,-7.6075,-7.6029,-7.6085,-7.6115,-7.6089,-7.6303,-7.6243,-7.6269,-7.6345,-7.6557,-7.6569,-7.6579,-7.6646,-7.6668,-7.6687,0,0,0,0,0,0,-7.5727,-7.5796,-7.5782,-7.5923,-7.5981,-7.6042,-7.6113,-7.6098,-7.6169,-7.616,-7.6166,-7.6182,-7.6308,-7.6338,-7.627,-7.649,-7.6423,-7.644,-7.6465,-7.6486,-7.6503,-7.6493,-7.621,0,0,0,0,0,-7.5756,-7.584,-7.5895,-7.6014,-7.6044,-7.6074,-7.6122,-7.6124,-7.6183,-7.6207,-7.6246,-7.6303,-7.6384,-7.6437,-7.6513,-7.6658,-7.6672,-7.6723,-7.674,-7.6753,-7.6767,-7.6848,-7.6871,-7.6621,-7.6621,-7.662,0,0,-7.5815,-7.5863,-7.5916,-7.6026,-7.6071,-7.6158,-7.6094,-7.6188,-7.6253,-7.6221,-7.634,-7.6371,-7.6435,-7.657,-7.6632,-7.66,-7.684,-7.6767,-7.6777,-7.6785,-7.6861,-7.6885,-7.6906,-7.6628,-7.6627,-7.6626,0,0,-7.5968,-7.6013,-7.6118,-7.6165,-7.6235,-7.6254,-7.6279,-7.6344,-7.6364,-7.6484,-7.6462,-7.6538,-7.6676,-7.6724,-7.6766,-7.694,-7.6919,-7.6965,-7.7052,-7.713,-7.715,-7.7167,-7.723,-7.7253,-7.6979,-7.6979,-7.6979,0,-7.6033,-7.6164,-7.6173,-7.627,-7.6319,-7.6296,-7.6402,-7.6447,-7.6538,-7.6572,-7.6535,-7.671,-7.6751,-7.6898,-7.6941,-7.6976,-7.7005,-7.6957,-7.7146,-7.7164,-7.718,-7.7241,-7.7264,-7.6984,-7.6984,-7.6983,-7.6982,0,-7.6241,-7.6333,-7.6408,-7.6499,-7.6557,-7.6658,-7.6681,-7.6738,-7.6736,-7.6759,-7.6882,-7.6932,-7.7019,-7.7054,-7.7051,-7.7201,-7.7179,-7.7144,-7.7078,-7.7209,-7.7266,-7.7289,-7.6992,-7.699,-7.6988,-7.6987,0,0,-7.6432,-7.6528,-7.6556,-7.6597,-7.6674,-7.6744,-7.6844,-7.6931,-7.698,-7.7044,-7.7128,-7.7247,-7.7216,-7.7264,-7.7267,-7.7335,-7.7471,-7.7292,-7.7294,-7.7325,-7.7641,-7.7667,-7.7694,-7.7458,-7.7462,-7.7466,-7.7636,0,-7.6593,-7.677,-7.6782,-7.6942,-7.7027,-7.7007,-7.7094,-7.715,-7.7175,-7.725,-7.7277,-7.7362,-7.7314,-7.7343,-7.741,-7.7441,-7.7535,-7.7428,-7.7536,-7.754,-7.7521,-7.7723,-7.7751,-7.7909,-7.7658,-7.7662,-7.7664,0,-7.6803,-7.6876,-7.7046,-7.7112,-7.7148,-7.7226,-7.7308,-7.738,-7.7443,-7.7456,-7.7512,-7.7505,-7.7607,-7.7537,-7.7678,-7.7606,-7.765,-7.7672,-7.7679,-7.7689,-7.761,-7.774,-7.7959,-7.7984,-7.7699,-7.7696,-7.7694,0,-7.6927,-7.7067,-7.7187,-7.7223,-7.7303,-7.7359,-7.7394,-7.7454,-7.7506,-7.7577,-7.7611,-7.7692,-7.7736,-7.7799,-7.7814,-7.7762,-7.7956,-7.7887,-7.797,-7.797,-7.8012,-7.8009,-7.8242,-7.8039,-7.8039,-7.8039,-7.8038,0,-7.7106,-7.7211,-7.7244,-7.7318,-7.7435,-7.7447,-7.7562,-7.7594,-7.7647,-7.7726,-7.7713,-7.7788,-7.7803,-7.7881,-7.7894,-7.8009,-7.8029,-7.8043,-7.8045,-7.8045,-7.8043,-7.8074,-7.8064,-7.8045,-7.8044,-7.8042,-7.8041,0,-7.7264,-7.7291,-7.742,-7.7486,-7.7505,-7.7589,-7.7644,-7.7715,-7.7739,-7.784,-7.7864,-7.7901,-7.7992,-7.8014,-7.8121,-7.813,-7.8267,-7.8258,-7.8247,-7.8246,-7.8329,-7.8321,-7.8591,-7.8627,-7.84,-7.8402,-7.8404,0,-7.7377,-7.7457,-7.7532,-7.7586,-7.7625,-7.771,-7.7764,-7.7778,-7.7835,-7.7914,-7.7976,-7.8066,-7.8139,-7.8285,-7.8321,-7.8403,-7.8397,-7.8486,-7.8409,-7.8407,-7.84,-7.8395,-7.8404,-7.85,-7.8503,-7.8505,-7.8506,0,-7.7574,-7.7584,-7.7663,-7.7748,-7.7813,-7.7879,-7.7943,-7.7987,-7.8011,-7.8075,-7.8169,-7.8226,-7.8337,-7.8426,-7.851,-7.8545,-7.8531,-7.853,-7.8554,-7.8555,-7.8545,-7.8553,-7.8288,-7.8524,-7.8522,-7.8521,-7.852,-7.8519,-7.7714,-7.7785,-7.785,-7.7939,-7.7989,-7.8049,-7.812,-7.8153,-7.8233,-7.8326,-7.8329,-7.8432,-7.8494,-7.8605,-7.8646,-7.8726,-7.8698,-7.8732,-7.8741,-7.875,-7.8758,-7.8532,-7.8741,-7.874,-7.874,-7.8739,-7.8739,0,-7.7912,-7.7953,-7.8035,-7.8126,-7.8196,-7.8177,-7.8247,-7.8306,-7.8398,-7.8457,-7.853,-7.8639,-7.8726,-7.877,-7.8856,-7.8912,-7.8907,-7.8934,-7.8931,-7.8939,-7.8777,-7.8748,-7.8937,-7.8937,-7.8937,-7.8937,-7.8937,-7.8937,-7.8023,-7.8144,-7.8162,-7.8307,-7.8347,-7.8449,-7.849,-7.8546,-7.8594,-7.8717,-7.879,-7.8819,-7.8872,-7.8963,-7.9042,-7.9053,-7.9085,-7.9116,-7.9124,-7.8971,-7.8951,-7.8931,-7.8905,-7.9123,-7.9123,-7.928,-7.9281,-7.9282]}]]